Oxford, CT

6:49 PM EDT on October 16, 2017 (GMT -0400)
Waterbury-Oxford

Weather History for KOXC - November, 2014

Change the Weather History Date:

Tuesday, November 25, 2014

  Actual Average Record
Temperature  
Mean Temperature 53 °F -  
Max Temperature 64 °F 44 °F 64 °F (2014)
Min Temperature 42 °F 30 °F 12 °F (2000)
Degree Days  
Heating Degree Days 12    
Growing Degree Days 3 (Base 50)    
Moisture  
Dew Point 39 °F    
Average Humidity 60    
Maximum Humidity 88    
Minimum Humidity 35    
Precipitation  
Precipitation 0.00 in - - ()
Sea Level Pressure  
Sea Level Pressure 29.93 in    
Wind  
Wind Speed 6 mph (WSW)    
Max Wind Speed 14 mph    
Max Gust Speed 28 mph    
Visibility 10 miles    
Events      
Averages and records for this station are not official NWS values.
T = Trace of Precipitation, MM = Missing Value Source: NWS Daily Summary

Daily Weather History Graph

Daily Weather History Graph

Search for Another Location

Airport or City:

Trip Planner

Search our weather history database for the weather conditions in past years. The results will help you decide how hot, cold, wet, or windy it might be!

Date:

Astronomy

Nov. 25, 2014 Rise Set
Actual Time 6:52 AM EST 4:25 PM EST
Civil Twilight 6:22 AM EST 4:56 PM EST
Nautical Twilight 5:48 AM EST 5:30 PM EST
Astronomical Twilight 5:15 AM EST 6:03 PM EST
Moon 9:35 AM EST (11/25) 7:48 PM EST (11/25)
Length of Visible Light 10h 33m
Length of Day
9h 33m
Waxing Crescent, 12% of the Moon is Illuminated
Nov 25
Waxing Crescent
Nov 29
First Quarter
Dec 6
Full
Dec 14
Last Quarter
Dec 21
New

Hourly Weather History & Observations

Time (EST) Temp. Windchill Dew Point Humidity Pressure Visibility Wind Dir Wind Speed Gust Speed Precip Events Conditions
12:15 AM 62.6 °F - 55.4 °F 77% 29.75 in 10.0 mi WSW 6.9 mph 17.3 mph N/A   Clear
12:35 AM 62.6 °F - 55.4 °F 77% 29.74 in 10.0 mi WSW 10.4 mph 18.4 mph N/A   Clear
12:55 AM 64.4 °F - 55.4 °F 73% 29.76 in 10.0 mi WSW 13.8 mph 24.2 mph N/A   Partly Cloudy
1:15 AM 64.4 °F - 55.4 °F 73% 29.76 in 10.0 mi WSW 8.1 mph 17.3 mph N/A   Partly Cloudy
1:35 AM 62.6 °F - 55.4 °F 77% 29.76 in 10.0 mi West 10.4 mph 20.7 mph N/A   Clear
1:55 AM 62.6 °F - 55.4 °F 77% 29.76 in 10.0 mi West 8.1 mph - N/A   Clear
2:15 AM 62.6 °F - 55.4 °F 77% 29.77 in 10.0 mi WSW 8.1 mph 16.1 mph N/A   Clear
2:35 AM 62.6 °F - 55.4 °F 77% 29.78 in 10.0 mi WSW 5.8 mph - N/A   Clear
2:55 AM 62.6 °F - 53.6 °F 72% 29.77 in 10.0 mi West 6.9 mph - N/A   Clear
3:15 AM 60.8 °F - 53.6 °F 77% 29.79 in 10.0 mi WSW 4.6 mph - N/A   Clear
3:35 AM 60.8 °F - 53.6 °F 77% 29.78 in 10.0 mi WSW 4.6 mph - N/A   Clear
3:55 AM 60.8 °F - 53.6 °F 77% 29.79 in 10.0 mi SSW 3.5 mph - N/A   Clear
4:15 AM 60.8 °F - 53.6 °F 77% 29.80 in 10.0 mi SW 3.5 mph - N/A   Clear
4:35 AM 59.0 °F - 53.6 °F 82% 29.82 in 10.0 mi SSW 4.6 mph - N/A   Clear
4:55 AM 57.2 °F - 53.6 °F 88% 29.83 in 10.0 mi SSW 4.6 mph - N/A   Clear
5:15 AM 57.2 °F - 51.8 °F 82% 29.83 in 10.0 mi SW 4.6 mph - N/A   Clear
5:35 AM 57.2 °F - 51.8 °F 82% 29.84 in 10.0 mi SW 5.8 mph - N/A   Clear
5:50 AM 57.2 °F - 51.8 °F 82% 29.85 in 10.0 mi WSW 5.8 mph - N/A   Mostly Cloudy
6:50 AM 57.2 °F - 42.8 °F 59% 29.88 in 10.0 mi West 5.8 mph - N/A   Scattered Clouds
7:50 AM 55.4 °F - 35.6 °F 47% 29.91 in 10.0 mi WNW 6.9 mph - N/A   Partly Cloudy
8:55 AM 55.4 °F - 30.2 °F 38% 29.94 in 10.0 mi WNW 11.5 mph 27.6 mph N/A   Partly Cloudy
9:50 AM 53.6 °F - 28.4 °F 38% 29.95 in 10.0 mi WNW 13.8 mph 27.6 mph N/A   Partly Cloudy
11:50 AM 53.6 °F - 26.6 °F 35% 29.96 in 10.0 mi West 5.8 mph 16.1 mph N/A   Overcast
12:50 PM 51.8 °F - 26.6 °F 38% 29.96 in 10.0 mi WNW 10.4 mph 16.1 mph N/A   Overcast
1:50 PM 51.8 °F - 26.6 °F 38% 29.96 in 10.0 mi West 6.9 mph - N/A   Overcast
2:50 PM 51.8 °F - 26.6 °F 38% 29.96 in 10.0 mi West 3.5 mph - N/A   Overcast
3:50 PM 50.0 °F - 26.6 °F 40% 29.98 in 10.0 mi West 3.5 mph - N/A   Overcast
4:52 PM 48.2 °F - 26.6 °F 43% 30.01 in 10.0 mi Calm Calm - N/A   Mostly Cloudy
5:52 PM 46.4 °F - 24.8 °F 43% 30.03 in 10.0 mi Calm Calm - N/A   Mostly Cloudy
6:52 PM 44.6 °F - 24.8 °F 46% 30.04 in 10.0 mi Calm Calm - N/A   Mostly Cloudy
7:52 PM 42.8 °F - 24.8 °F 49% 30.08 in 10.0 mi Calm Calm - N/A   Mostly Cloudy
8:52 PM 42.8 °F - 24.8 °F 49% 30.10 in 10.0 mi Calm Calm - N/A   Mostly Cloudy
9:15 PM 42.8 °F 41.1 °F 26.6 °F 53% 30.11 in 10.0 mi SW 3.5 mph - N/A   Clear
9:35 PM 42.8 °F 41.1 °F 26.6 °F 53% 30.11 in 10.0 mi SW 3.5 mph - N/A   Clear
9:55 PM 42.8 °F 40.1 °F 26.6 °F 53% 30.11 in 10.0 mi SW 4.6 mph - N/A   Clear
10:15 PM 42.8 °F 41.1 °F 26.6 °F 53% 30.11 in 10.0 mi WSW 3.5 mph - N/A   Clear
10:35 PM 42.8 °F 40.1 °F 26.6 °F 53% 30.12 in 10.0 mi WSW 4.6 mph - N/A   Clear
10:55 PM 42.8 °F 41.1 °F 26.6 °F 53% 30.13 in 10.0 mi WSW 3.5 mph - N/A   Clear
11:15 PM 44.6 °F 43.1 °F 26.6 °F 49% 30.15 in 10.0 mi WSW 3.5 mph - N/A   Clear
11:35 PM 44.6 °F - 26.6 °F 49% 30.14 in 10.0 mi Calm Calm - N/A   Clear
11:55 PM 44.6 °F - 26.6 °F 49% 30.14 in 10.0 mi Calm Calm - N/A   Clear